Regional Weather Roundup
Issued by NWS

Home | Current Version | Previous Version | Graphics & Text | Print | Product List | Glossary On
Versions: 1 2 3 4 5 6 7 8 9 10 11 12 13 14 15 16 17 18 19 20 21 22 23 24 25 26 27 28 29 30 31 32 33 34 35 36 37 38 39 40 41 42 43 44 45 46 47 48 49 50
000
ASUS43 KLMK 260410
RWRKY
KENTUCKY REGIONAL WEATHER ROUNDUP
NATIONAL WEATHER SERVICE LOUISVILLE KY
1200 AM EDT THU APR 26 2018

NOTE "FAIR" INDICATES FEW OR NO CLOUDS BELOW 12,000 FEET
WITH NO SIGNIFICANT WEATHER AND/OR OBSTRUCTIONS TO VISIBILITY.

KYZ001>023-026-027-061>063-070>075-260500-
WESTERN AND SOUTH CENTRAL KENTUCKY

CITY           SKY/WX    TMP DP  RH WIND       PRES   REMARKS
PADUCAH        LGT RAIN  57  55  93 NE6       29.93F
HENDERSON      FAIR      60  53  77 NE5       29.93F
OWENSBORO      FAIR      62  49  62 NE5       29.93F
HOPKINSVILLE   CLOUDY    60  52  75 W12       29.92F
BOWLING GREEN  MOCLDY    59  54  83 CALM      29.92F
GLASGOW        CLOUDY    55  52  88 CALM      29.93S
$$

KYZ024-025-028>034-038-045-046-053-260500-
NORTH CENTRAL KENTUCKY

CITY           SKY/WX    TMP DP  RH WIND       PRES   REMARKS
LOUISVILLE/SDF CLOUDY    59  47  64 NW3       29.93S
LOUISVILLE/LOU FAIR      57  49  74 CALM      29.93F
FORT KNOX      FAIR      58  44  59 N3        29.94S
$$

KYZ035>037-039>044-047>052-055>060-089>105-260500-
NORTHEAST KENTUCKY

CITY           SKY/WX    TMP DP  RH WIND       PRES   REMARKS
LEXINGTON      FAIR      56  45  66 N5        29.93F
COVINGTON      CLOUDY    54  40  59 NW10      29.93S
FRANKFORT      MOCLDY    56  44  64 NW5       29.92F
$$

KYZ054-064>069-076>088-106>120-260500-
SOUTHEAST KENTUCKY

CITY           SKY/WX    TMP DP  RH WIND       PRES   REMARKS
JACKSON        FAIR      51  50  96 SW3       29.92F
LONDON         FOG       50  49  96 CALM      29.93F VSB 1/2
SOMERSET       FAIR      50  50 100 CALM      29.95S
MIDDLESBORO      N/A     48  48 100 CALM      29.94F FOG
MONTICELLO     NOT AVBL
$$





USA.gov is the U.S. government's official web portal to all federal, state and local government web resources and services.